Time,TemperatureF,DewpointF,PressureIn,WindDirection,WindDirectionDegrees,WindSpeedMPH,WindSpeedGustMPH,Humidity,HourlyPrecipIn,Conditions,Clouds,dailyrainin,SoftwareType,DateUTC
2013-02-22 00:12:00,24.2,17.0,30.19,NW,305,1.0,2.0,74,0.00,,,0.00,weatherlink.com 1.10,2013-02-22 05:12:00,
2013-02-22 00:27:00,24.2,17.0,30.20,North,360,0.0,3.0,75,0.00,,,0.00,weatherlink.com 1.10,2013-02-22 05:27:00,
2013-02-22 00:42:00,24.3,17.0,30.21,NW,319,1.0,2.0,75,0.00,,,0.00,weatherlink.com 1.10,2013-02-22 05:42:00,
2013-02-22 00:57:00,24.8,18.0,30.21,WSW,238,1.0,2.0,74,0.00,,,0.00,weatherlink.com 1.10,2013-02-22 05:57:00,
2013-02-22 01:27:00,23.6,17.0,30.22,NW,311,0.0,1.0,77,0.00,,,0.00,weatherlink.com 1.10,2013-02-22 06:27:00,
2013-02-22 01:42:00,23.3,17.0,30.22,West,266,1.0,2.0,78,0.00,,,0.00,weatherlink.com 1.10,2013-02-22 06:42:00,
2013-02-22 01:58:00,23.9,17.0,30.22,NNW,329,0.0,3.0,76,0.00,,,0.00,weatherlink.com 1.10,2013-02-22 06:58:00,
2013-02-22 02:12:00,23.6,17.0,30.23,NW,321,1.0,3.0,77,0.00,,,0.00,weatherlink.com 1.10,2013-02-22 07:12:00,
2013-02-22 02:27:00,23.6,18.0,30.23,WNW,285,0.0,3.0,78,0.00,,,0.00,weatherlink.com 1.10,2013-02-22 07:27:00,
2013-02-22 02:42:00,23.8,18.0,30.23,West,270,0.0,3.0,78,0.00,,,0.00,weatherlink.com 1.10,2013-02-22 07:42:00,
2013-02-22 02:57:00,23.9,18.0,30.23,NNW,347,0.0,4.0,78,0.00,,,0.00,weatherlink.com 1.10,2013-02-22 07:57:00,
2013-02-22 03:12:00,23.8,18.0,30.24,NW,316,0.0,3.0,78,0.00,,,0.00,weatherlink.com 1.10,2013-02-22 08:12:00,
2013-02-22 03:27:00,23.5,18.0,30.24,WSW,248,0.0,1.0,79,0.00,,,0.00,weatherlink.com 1.10,2013-02-22 08:27:00,
2013-02-22 03:42:00,23.5,18.0,30.25,WSW,247,0.0,2.0,80,0.00,,,0.00,weatherlink.com 1.10,2013-02-22 08:42:00,
2013-02-22 03:57:00,23.9,19.0,30.26,West,273,1.0,2.0,80,0.00,,,0.00,weatherlink.com 1.10,2013-02-22 08:57:00,
2013-02-22 04:12:00,23.9,19.0,30.25,NNW,330,1.0,2.0,80,0.00,,,0.00,weatherlink.com 1.10,2013-02-22 09:12:00,
2013-02-22 04:27:00,24.0,18.0,30.25,North,349,0.0,2.0,79,0.00,,,0.00,weatherlink.com 1.10,2013-02-22 09:27:00,
2013-02-22 04:43:00,23.7,18.0,30.26,NNE,20,0.0,1.0,80,0.00,,,0.00,weatherlink.com 1.10,2013-02-22 09:43:00,
2013-02-22 04:58:00,22.9,18.0,30.27,NNE,20,0.0,1.0,82,0.00,,,0.00,weatherlink.com 1.10,2013-02-22 09:58:00,
2013-02-22 05:13:00,22.4,18.0,30.28,NNE,20,0.0,1.0,83,0.00,,,0.00,weatherlink.com 1.10,2013-02-22 10:13:00,
2013-02-22 05:28:00,22.0,18.0,30.30,West,271,0.0,1.0,84,0.00,,,0.00,weatherlink.com 1.10,2013-02-22 10:28:00,
2013-02-22 05:43:00,21.8,18.0,30.30,West,271,0.0,1.0,84,0.00,,,0.00,weatherlink.com 1.10,2013-02-22 10:43:00,
2013-02-22 05:58:00,21.7,18.0,30.30,SW,225,0.0,1.0,84,0.00,,,0.00,weatherlink.com 1.10,2013-02-22 10:58:00,
2013-02-22 06:13:00,21.6,18.0,30.32,SSW,197,0.0,2.0,85,0.00,,,0.00,weatherlink.com 1.10,2013-02-22 11:13:00,
2013-02-22 06:28:00,21.7,18.0,30.33,SW,231,0.0,1.0,85,0.00,,,0.00,weatherlink.com 1.10,2013-02-22 11:28:00,
2013-02-22 06:43:00,21.6,18.0,30.34,WNW,300,0.0,1.0,85,0.00,,,0.00,weatherlink.com 1.10,2013-02-22 11:43:00,
2013-02-22 06:58:00,21.6,18.0,30.35,WNW,300,1.0,1.0,85,0.00,,,0.00,weatherlink.com 1.10,2013-02-22 11:58:00,
2013-02-22 07:13:00,22.1,18.0,30.35,NW,319,0.0,1.0,85,0.00,,,0.00,weatherlink.com 1.10,2013-02-22 12:13:00,
2013-02-22 07:28:00,22.7,19.0,30.36,NW,319,0.0,1.0,85,0.00,,,0.00,weatherlink.com 1.10,2013-02-22 12:28:00,
2013-02-22 07:43:00,24.2,20.0,30.36,North,8,0.0,1.0,83,0.00,,,0.00,weatherlink.com 1.10,2013-02-22 12:43:00,
2013-02-22 07:58:00,25.7,20.0,30.36,SW,215,0.0,3.0,79,0.00,,,0.00,weatherlink.com 1.10,2013-02-22 12:58:00,
2013-02-22 08:13:00,27.6,21.0,30.36,SSE,155,2.0,6.0,75,0.00,,,0.00,weatherlink.com 1.10,2013-02-22 13:13:00,
2013-02-22 08:28:00,28.6,21.0,30.36,North,4,2.0,4.0,73,0.00,,,0.00,weatherlink.com 1.10,2013-02-22 13:28:00,
2013-02-22 08:43:00,29.4,21.0,30.36,NNE,12,0.0,4.0,71,0.00,,,0.00,weatherlink.com 1.10,2013-02-22 13:43:00,
2013-02-22 08:58:00,30.5,21.0,30.36,North,8,2.0,4.0,69,0.00,,,0.00,weatherlink.com 1.10,2013-02-22 13:58:00,
2013-02-22 09:14:00,31.9,22.0,30.35,NNW,333,1.0,8.0,66,0.00,,,0.00,weatherlink.com 1.10,2013-02-22 14:14:00,
2013-02-22 09:28:00,32.7,22.0,30.36,NNW,337,0.0,5.0,65,0.00,,,0.00,weatherlink.com 1.10,2013-02-22 14:28:00,
2013-02-22 09:43:00,34.0,23.0,30.36,NW,323,0.0,3.0,64,0.00,,,0.00,weatherlink.com 1.10,2013-02-22 14:43:00,
2013-02-22 09:58:00,34.3,22.0,30.35,North,11,3.0,7.0,62,0.00,,,0.00,weatherlink.com 1.10,2013-02-22 14:58:00,
2013-02-22 10:14:00,35.4,23.0,30.36,NW,318,1.0,4.0,62,0.00,,,0.00,weatherlink.com 1.10,2013-02-22 15:14:00,
2013-02-22 10:29:00,35.6,23.0,30.35,East,81,1.0,8.0,61,0.00,,,0.00,weatherlink.com 1.10,2013-02-22 15:29:00,
2013-02-22 10:44:00,36.1,23.0,30.35,East,101,2.0,5.0,60,0.00,,,0.00,weatherlink.com 1.10,2013-02-22 15:44:00,
2013-02-22 10:59:00,36.3,23.0,30.35,North,354,2.0,5.0,59,0.00,,,0.00,weatherlink.com 1.10,2013-02-22 15:59:00,
2013-02-22 11:14:00,37.1,23.0,30.34,ENE,75,1.0,4.0,56,0.00,,,0.00,weatherlink.com 1.10,2013-02-22 16:14:00,
2013-02-22 11:29:00,37.2,23.0,30.34,East,89,3.0,6.0,56,0.00,,,0.00,weatherlink.com 1.10,2013-02-22 16:29:00,
2013-02-22 11:45:00,37.6,22.0,30.33,North,4,3.0,3.0,53,0.00,,,0.00,weatherlink.com 1.10,2013-02-22 16:45:00,
2013-02-22 11:59:00,37.7,23.0,30.33,North,8,3.0,6.0,55,0.00,,,0.00,weatherlink.com 1.10,2013-02-22 16:59:00,
2013-02-22 12:14:00,36.9,21.0,30.33,North,354,1.0,4.0,54,0.00,,,0.00,weatherlink.com 1.10,2013-02-22 17:14:00,
2013-02-22 12:29:00,37.3,22.0,30.33,WNW,301,0.0,4.0,55,0.00,,,0.00,weatherlink.com 1.10,2013-02-22 17:29:00,
2013-02-22 12:44:00,38.1,22.0,30.33,NNW,341,2.0,6.0,52,0.00,,,0.00,weatherlink.com 1.10,2013-02-22 17:44:00,
2013-02-22 12:59:00,38.4,22.0,30.33,East,95,5.0,5.0,52,0.00,,,0.00,weatherlink.com 1.10,2013-02-22 17:59:00,
2013-02-22 13:14:00,38.9,22.0,30.33,ESE,115,1.0,5.0,52,0.00,,,0.00,weatherlink.com 1.10,2013-02-22 18:14:00,
2013-02-22 13:29:00,39.1,21.0,30.34,ENE,60,1.0,4.0,49,0.00,,,0.00,weatherlink.com 1.10,2013-02-22 18:29:00,
2013-02-22 13:44:00,39.1,21.0,30.32,North,358,1.0,5.0,49,0.00,,,0.00,weatherlink.com 1.10,2013-02-22 18:44:00,
2013-02-22 13:59:00,38.7,22.0,30.31,North,355,2.0,4.0,52,0.00,,,0.00,weatherlink.com 1.10,2013-02-22 18:59:00,
2013-02-22 14:14:00,38.7,23.0,30.31,East,98,2.0,4.0,54,0.00,,,0.00,weatherlink.com 1.10,2013-02-22 19:14:00,
2013-02-22 14:29:00,38.6,21.0,30.32,NW,323,1.0,4.0,50,0.00,,,0.00,weatherlink.com 1.10,2013-02-22 19:29:00,
2013-02-22 14:44:00,38.3,22.0,30.31,NNE,12,2.0,5.0,52,0.00,,,0.00,weatherlink.com 1.10,2013-02-22 19:44:00,
2013-02-22 14:59:00,37.9,23.0,30.31,ESE,105,0.0,3.0,56,0.00,,,0.00,weatherlink.com 1.10,2013-02-22 19:59:00,
2013-02-22 15:14:00,37.9,24.0,30.32,East,85,1.0,3.0,57,0.00,,,0.00,weatherlink.com 1.10,2013-02-22 20:14:00,
2013-02-22 15:29:00,37.8,24.0,30.32,East,81,2.0,5.0,58,0.00,,,0.00,weatherlink.com 1.10,2013-02-22 20:29:00,
2013-02-22 15:44:00,37.2,23.0,30.32,East,99,1.0,2.0,57,0.00,,,0.00,weatherlink.com 1.10,2013-02-22 20:44:00,
2013-02-22 15:59:00,37.3,24.0,30.32,East,94,2.0,4.0,59,0.00,,,0.00,weatherlink.com 1.10,2013-02-22 20:59:00,
2013-02-22 16:14:00,36.7,25.0,30.32,ESE,104,1.0,3.0,63,0.00,,,0.00,weatherlink.com 1.10,2013-02-22 21:14:00,
2013-02-22 16:29:00,36.0,25.0,30.31,ESE,107,1.0,3.0,64,0.00,,,0.00,weatherlink.com 1.10,2013-02-22 21:29:00,
2013-02-22 16:44:00,35.5,25.0,30.30,ESE,108,1.0,3.0,65,0.00,,,0.00,weatherlink.com 1.10,2013-02-22 21:44:00,
2013-02-22 16:59:00,35.2,24.0,30.31,East,92,2.0,3.0,64,0.00,,,0.00,weatherlink.com 1.10,2013-02-22 21:59:00,
2013-02-22 17:14:00,34.7,24.0,30.31,East,91,0.0,3.0,66,0.00,,,0.00,weatherlink.com 1.10,2013-02-22 22:14:00,
2013-02-22 17:29:00,34.1,24.0,30.31,ESE,107,0.0,1.0,66,0.00,,,0.00,weatherlink.com 1.10,2013-02-22 22:29:00,
2013-02-22 17:44:00,33.5,24.0,30.32,ESE,110,0.0,1.0,68,0.00,,,0.00,weatherlink.com 1.10,2013-02-22 22:44:00,
2013-02-22 17:59:00,32.9,24.0,30.33,ESE,110,0.0,0.0,70,0.00,,,0.00,weatherlink.com 1.10,2013-02-22 22:59:00,
2013-02-22 18:14:00,32.3,25.0,30.32,ESE,110,0.0,0.0,73,0.00,,,0.00,weatherlink.com 1.10,2013-02-22 23:14:00,
2013-02-22 18:29:00,32.1,24.0,30.32,ESE,108,0.0,1.0,73,0.00,,,0.00,weatherlink.com 1.10,2013-02-22 23:29:00,
2013-02-22 18:44:00,31.3,26.0,30.33,ESE,109,0.0,0.0,79,0.00,,,0.00,weatherlink.com 1.10,2013-02-22 23:44:00,
2013-02-22 18:59:00,30.7,24.0,30.32,ESE,108,0.0,0.0,77,0.00,,,0.00,weatherlink.com 1.10,2013-02-22 23:59:00,
2013-02-22 19:14:00,30.2,24.0,30.34,ESE,108,0.0,0.0,79,0.00,,,0.00,weatherlink.com 1.10,2013-02-23 00:14:00,
2013-02-22 19:30:00,30.1,25.0,30.33,ESE,109,0.0,1.0,80,0.00,,,0.00,weatherlink.com 1.10,2013-02-23 00:30:00,
2013-02-22 19:45:00,29.8,25.0,30.32,ESE,108,0.0,0.0,83,0.00,,,0.00,weatherlink.com 1.10,2013-02-23 00:45:00,
2013-02-22 19:59:00,29.8,25.0,30.33,ESE,109,0.0,0.0,82,0.00,,,0.00,weatherlink.com 1.10,2013-02-23 00:59:00,
2013-02-22 20:14:00,30.5,26.0,30.34,ESE,108,0.0,1.0,83,0.00,,,0.00,weatherlink.com 1.10,2013-02-23 01:14:00,
2013-02-22 20:29:00,30.2,26.0,30.33,ESE,115,0.0,1.0,83,0.00,,,0.00,weatherlink.com 1.10,2013-02-23 01:29:00,
2013-02-22 20:44:00,30.2,26.0,30.32,ESE,117,0.0,1.0,84,0.00,,,0.00,weatherlink.com 1.10,2013-02-23 01:44:00,
2013-02-22 20:59:00,30.1,26.0,30.32,ESE,117,0.0,0.0,83,0.00,,,0.00,weatherlink.com 1.10,2013-02-23 01:59:00,
2013-02-22 21:14:00,30.1,26.0,30.33,ESE,117,0.0,1.0,83,0.00,,,0.00,weatherlink.com 1.10,2013-02-23 02:14:00,
2013-02-22 21:29:00,30.2,26.0,30.33,ESE,117,0.0,0.0,84,0.00,,,0.00,weatherlink.com 1.10,2013-02-23 02:29:00,
2013-02-22 21:44:00,30.1,26.0,30.33,ESE,117,0.0,0.0,83,0.00,,,0.00,weatherlink.com 1.10,2013-02-23 02:44:00,
2013-02-22 21:59:00,30.2,25.0,30.32,ESE,117,0.0,1.0,81,0.00,,,0.00,weatherlink.com 1.10,2013-02-23 02:59:00,
2013-02-22 22:14:00,30.2,26.0,30.33,ESE,117,0.0,0.0,83,0.00,,,0.00,weatherlink.com 1.10,2013-02-23 03:14:00,
2013-02-22 22:29:00,30.1,26.0,30.33,ESE,117,0.0,0.0,83,0.00,,,0.00,weatherlink.com 1.10,2013-02-23 03:29:00,
2013-02-22 22:44:00,30.0,25.0,30.33,ESE,117,0.0,1.0,83,0.00,,,0.00,weatherlink.com 1.10,2013-02-23 03:44:00,
2013-02-22 22:59:00,30.0,26.0,30.32,ESE,117,0.0,0.0,84,0.00,,,0.00,weatherlink.com 1.10,2013-02-23 03:59:00,
2013-02-22 23:14:00,29.9,26.0,30.32,ESE,117,0.0,0.0,84,0.00,,,0.00,weatherlink.com 1.10,2013-02-23 04:14:00,
2013-02-22 23:29:00,29.8,26.0,30.32,ESE,117,0.0,0.0,85,0.00,,,0.00,weatherlink.com 1.10,2013-02-23 04:29:00,
2013-02-22 23:44:00,29.0,25.0,30.32,ESE,117,0.0,0.0,85,0.00,,,0.00,weatherlink.com 1.10,2013-02-23 04:44:00,
2013-02-22 23:59:00,28.0,24.0,30.31,ESE,117,0.0,0.0,86,0.00,,,0.00,weatherlink.com 1.10,2013-02-23 04:59:00,